Brinson, GA

1:53 PM EDT on August 26, 2016 (GMT -0400)
Decatur County Industrial

Weather History for KBGE - August, 2013

Change the Weather History Date:

Friday, August 16, 2013

  Actual Average (KMAI) Record (KMAI)
Temperature  
Mean Temperature 80 °F 82 °F  
Max Temperature 86 °F 91 °F 96 °F (2007)
Min Temperature 75 °F 72 °F 66 °F (2011)
Degree Days  
Heating Degree Days 0    
Month to date heating degree days  
Since 1 June heating degree days  
Since 1 July heating degree days  
Cooling Degree Days 16    
Month to date cooling degree days  
Year to date cooling degree days  
Since 1 June cooling degree days  
Growing Degree Days 30 (Base 50)    
Moisture  
Dew Point 76 °F    
Average Humidity 90    
Maximum Humidity 100    
Minimum Humidity 70    
Precipitation  
Precipitation 0.00 in 0.16 in 4.62 in (2013)
Month to date precipitation 3.21  
Year to date precipitation 36.11  
Sea Level Pressure  
Sea Level Pressure 29.99 in    
Wind  
Wind Speed 3 mph (SE)    
Max Wind Speed 8 mph    
Max Gust Speed 16 mph    
Visibility 8 miles    
Events Rain , Thunderstorm    
T = Trace of Precipitation, MM = Missing Value Source: NWS Daily Summary

Daily Weather History Graph

Daily Weather History Graph

Search for Another Location

Airport or City:

Trip Planner

Search our weather history database for the weather conditions in past years. The results will help you decide how hot, cold, wet, or windy it might be!

Date:

Astronomy

Aug. 16, 2013 Rise Set
Actual Time 7:05 AM EDT 8:19 PM EDT
Civil Twilight 6:39 AM EDT 8:44 PM EDT
Nautical Twilight 6:09 AM EDT 9:15 PM EDT
Astronomical Twilight 5:38 AM EDT 9:46 PM EDT
Moon 4:30 PM EDT (8/16) 2:14 AM EDT (8/16)
Length of Visible Light 14h 05m
Length of Day
13h 14m
Waxing Gibbous, 74% of the Moon is Illuminated
Aug 16
Waxing Gibbous
Aug 20
Full
Aug 28
Last Quarter
Sep 5
New
Sep 12
First Quarter

Hourly Weather History & Observations

Time (EDT) Temp. Heat Index Dew Point Humidity Pressure Visibility Wind Dir Wind Speed Gust Speed Precip Events Conditions
12:15 AM 77.0 °F - 75.2 °F 94% 30.00 in 10.0 mi East 3.5 mph - N/A   Scattered Clouds
12:35 AM 77.0 °F - 75.2 °F 94% 30.00 in 10.0 mi Calm Calm - N/A   Scattered Clouds
12:55 AM 77.0 °F - 75.2 °F 94% 29.99 in 10.0 mi East 4.6 mph - N/A   Clear
1:15 AM 77.0 °F - 75.2 °F 94% 29.99 in 10.0 mi East 3.5 mph - N/A   Scattered Clouds
1:55 AM 77.0 °F - 75.2 °F 94% 29.98 in 10.0 mi Calm Calm - N/A   Overcast
2:15 AM 77.0 °F - 75.2 °F 94% 29.97 in 10.0 mi East 3.5 mph - N/A   Overcast
2:35 AM 77.0 °F - 75.2 °F 94% 29.97 in 7.0 mi ESE 5.8 mph - N/A   Overcast
2:55 AM 77.0 °F - 75.2 °F 94% 29.96 in 1.0 mi ESE 4.6 mph - N/A   Overcast
3:15 AM 77.0 °F - 75.2 °F 94% 29.95 in 1.5 mi Calm Calm - N/A   Overcast
3:35 AM 77.0 °F - 75.2 °F 94% 29.95 in 1.5 mi ESE 3.5 mph - N/A   Overcast
3:55 AM 77.0 °F - 75.2 °F 94% 29.95 in 1.0 mi Calm Calm - N/A   Overcast
4:15 AM 77.0 °F - 75.2 °F 94% 29.95 in 0.8 mi ESE 4.6 mph - N/A   Overcast
4:35 AM 77.0 °F - 75.2 °F 94% 29.96 in 1.0 mi Calm Calm - N/A   Overcast
4:55 AM 77.0 °F - 75.2 °F 94% 29.96 in 2.0 mi Calm Calm - N/A   Overcast
5:15 AM 77.0 °F - 75.2 °F 94% 29.96 in 3.0 mi ESE 3.5 mph - N/A   Overcast
5:35 AM 77.0 °F - 75.2 °F 94% 29.96 in 4.0 mi ESE 3.5 mph - N/A   Overcast
5:55 AM 77.0 °F - 75.2 °F 94% 29.96 in 5.0 mi ESE 4.6 mph - N/A   Overcast
6:15 AM 77.0 °F - 75.2 °F 94% 29.97 in 5.0 mi ESE 3.5 mph - N/A   Overcast
6:35 AM 77.0 °F - 75.2 °F 94% 29.97 in 3.0 mi Calm Calm - N/A   Overcast
6:55 AM 77.0 °F - 75.2 °F 94% 29.98 in 2.0 mi SE 3.5 mph - N/A   Overcast
7:15 AM 77.0 °F - 75.2 °F 94% 29.98 in 2.5 mi Calm Calm - N/A   Overcast
7:35 AM 78.8 °F - 78.8 °F 100% 29.98 in 5.0 mi SE 3.5 mph - N/A   Overcast
7:55 AM 78.8 °F - 78.8 °F 100% 29.99 in 7.0 mi South 4.6 mph - N/A   Overcast
8:15 AM 78.8 °F - 78.8 °F 100% 29.99 in 7.0 mi SSE 5.8 mph - N/A   Mostly Cloudy
8:35 AM 78.8 °F - 77.0 °F 94% 30.00 in 10.0 mi Calm Calm - N/A   Scattered Clouds
8:55 AM 78.8 °F - 77.0 °F 94% 30.00 in 10.0 mi Calm Calm - N/A   Scattered Clouds
9:15 AM 78.8 °F - 77.0 °F 94% 30.00 in 10.0 mi Calm Calm - N/A   Scattered Clouds
9:35 AM 78.8 °F - 77.0 °F 94% 30.00 in 10.0 mi Calm Calm - N/A   Scattered Clouds
9:55 AM 78.8 °F - 77.0 °F 94% 30.00 in 10.0 mi Calm Calm - N/A   Scattered Clouds
10:15 AM 78.8 °F - 77.0 °F 94% 30.00 in 10.0 mi SSE 3.5 mph - N/A   Clear
10:35 AM 78.8 °F - 77.0 °F 94% 30.01 in 10.0 mi South 3.5 mph - N/A   Clear
10:55 AM 80.6 °F 88.1 °F 78.8 °F 94% 30.01 in 10.0 mi Calm Calm - N/A   Mostly Cloudy
11:15 AM 80.6 °F 88.1 °F 78.8 °F 94% 30.01 in 10.0 mi Calm Calm - N/A Rain Light Rain
11:35 AM 82.4 °F 92.4 °F 78.8 °F 89% 30.01 in 10.0 mi SW 5.8 mph - N/A   Mostly Cloudy
11:55 AM 82.4 °F 92.4 °F 78.8 °F 89% 30.02 in 10.0 mi South 5.8 mph - N/A   Scattered Clouds
12:15 PM 84.2 °F 96.1 °F 78.8 °F 84% 30.01 in 10.0 mi SW 6.9 mph - N/A   Scattered Clouds
12:35 PM 84.2 °F 94.1 °F 77.0 °F 79% 30.00 in 10.0 mi WSW 5.8 mph - N/A   Mostly Cloudy
12:55 PM 84.2 °F 94.1 °F 77.0 °F 79% 29.99 in 10.0 mi West 5.8 mph - N/A   Scattered Clouds
1:15 PM 86.0 °F 96.9 °F 77.0 °F 74% 29.99 in 10.0 mi WSW 5.8 mph - N/A   Scattered Clouds
1:35 PM 84.2 °F 94.1 °F 77.0 °F 79% 29.99 in 10.0 mi SW 8.1 mph - N/A   Scattered Clouds
1:55 PM 84.2 °F 94.1 °F 77.0 °F 79% 29.97 in 10.0 mi SW 5.8 mph - N/A   Scattered Clouds
2:15 PM 86.0 °F 95.1 °F 75.2 °F 70% 29.97 in 10.0 mi WSW 5.8 mph - N/A   Clear
2:35 PM 86.0 °F 95.1 °F 75.2 °F 70% 29.96 in 10.0 mi West 4.6 mph - N/A   Clear
2:55 PM 86.0 °F 95.1 °F 75.2 °F 70% 29.96 in 10.0 mi West 3.5 mph - N/A   Clear
3:15 PM 86.0 °F 95.1 °F 75.2 °F 70% 29.96 in 10.0 mi Calm Calm - N/A   Clear
3:35 PM 86.0 °F 96.9 °F 77.0 °F 74% 29.95 in 10.0 mi West 5.8 mph - N/A   Clear
3:55 PM 86.0 °F 95.1 °F 75.2 °F 70% 29.95 in 10.0 mi SW 3.5 mph - N/A   Scattered Clouds
4:15 PM 84.2 °F 94.1 °F 77.0 °F 79% 29.94 in 10.0 mi West 5.8 mph - N/A Rain Light Rain
4:35 PM 84.2 °F 92.3 °F 75.2 °F 74% 29.95 in 10.0 mi WSW 3.5 mph - N/A Thunderstorm Scattered Clouds
4:55 PM 84.2 °F 94.1 °F 77.0 °F 79% 29.95 in 10.0 mi SW 3.5 mph - N/A Thunderstorm Clear
5:15 PM 82.4 °F 90.9 °F 77.0 °F 84% 29.96 in 10.0 mi WSW 3.5 mph - N/A Rain , Thunderstorm Light Thunderstorms and Rain
5:35 PM 78.8 °F - 77.0 °F 94% 29.97 in 10.0 mi North 6.9 mph - N/A Rain , Thunderstorm Light Thunderstorms and Rain
5:55 PM 78.8 °F - 77.0 °F 94% 29.98 in 10.0 mi North 8.1 mph 16.1 mph N/A Rain Light Rain
6:15 PM 78.8 °F - 77.0 °F 94% 29.98 in 10.0 mi NNW 4.6 mph - N/A Rain Rain
6:35 PM 78.8 °F - 77.0 °F 94% 30.00 in 7.0 mi NNE 8.1 mph - N/A Rain Rain
6:55 PM 78.8 °F - 77.0 °F 94% 29.99 in 7.0 mi NNE 8.1 mph - N/A Rain Rain
7:15 PM 77.0 °F - 75.2 °F 94% 30.00 in 5.0 mi East 4.6 mph - N/A Rain Rain
7:35 PM 77.0 °F - 73.4 °F 89% 30.01 in 1.2 mi ENE 3.5 mph - N/A Rain Heavy Rain
7:55 PM 77.0 °F - 73.4 °F 89% 30.00 in 2.0 mi ENE 6.9 mph - N/A Rain Heavy Rain
8:15 PM 77.0 °F - 75.2 °F 94% 30.01 in 7.0 mi NE 5.8 mph - N/A Rain Rain
8:35 PM 77.0 °F - 75.2 °F 94% 30.02 in 7.0 mi Calm Calm - N/A Rain Rain
8:55 PM 77.0 °F - 75.2 °F 94% 30.03 in 5.0 mi Calm Calm - N/A Rain Rain
9:15 PM 77.0 °F - 75.2 °F 94% 30.04 in 4.0 mi Calm Calm - N/A Rain Rain
9:35 PM 77.0 °F - 75.2 °F 94% 30.04 in 5.0 mi Calm Calm - N/A Rain Rain
9:55 PM 77.0 °F - 75.2 °F 94% 30.03 in 7.0 mi NE 4.6 mph - N/A Rain Rain
10:15 PM 75.2 °F - 73.4 °F 94% 30.04 in 7.0 mi ENE 6.9 mph - N/A Rain Rain
10:35 PM 75.2 °F - 73.4 °F 94% 30.04 in 10.0 mi NE 5.8 mph - N/A Rain Rain
10:55 PM 75.2 °F - 73.4 °F 94% 30.05 in 10.0 mi NNE 4.6 mph - N/A Rain Light Rain
11:15 PM 75.2 °F - 73.4 °F 94% 30.05 in 10.0 mi Calm Calm - N/A Rain Light Rain
11:35 PM 75.2 °F - 73.4 °F 94% 30.05 in 10.0 mi Calm Calm - N/A   Drizzle
11:55 PM 75.2 °F - 73.4 °F 94% 30.04 in 10.0 mi East 4.6 mph - N/A   Drizzle